sat.trackr.live / text

‹ back to catalog

IRIDIUM 173

NORAD 43925 · 2019-002D

PAYLOAD ACTIVE UNKNOWN

§ Identity

Operator
Country
US
Launch date
2019-01-11
Launch site
AFWTR
Launch vehicle
Mass (kg)
RCS (m²)

Purposes: comms

External: N2YO · Heavens-Above · Gunter

§ Orbital elements

Epoch: 2026-09-20T00:03:02.998656Z

Period
100.40 min
Inclination
86.3970°
Eccentricity
0.0002274
Mean motion
14.34217365 rev/d
Perigee alt
776.0 km
Apogee alt
779.3 km
Semi-major
7,155.8 km
B*
7.1386e-7
RAAN
313.9500°
Arg perigee
93.3035°
Mean anomaly
266.8421°
Rev number
40,254

§ Raw data

IRIDIUM 1731 43925U 19002D   26263.00211804  .00000022  00000+0  71386-6 0  99942 43925  86.3970 313.9500 0002274  93.3035 266.8421 14.34217365402547

JSON: /api/v1/satellites/43925 · /tle

For live sub-satellite position, see the globe view (requires WebGL).

§ Visibility from observer

Set your observer location to see the next 7 days of passes ≥ 10°. The values pass through the URL so the page stays shareable.

No JS? Fill the form by hand. The geolocation button needs JavaScript.